Location: Borovka
(49.7741°N, 14.5280°E)
Time: 21:42:00
(UTC+00:00)

KKS-1 - Visible Passes

Search period start: 16 March 2026 00:00
Search period end: 26 March 2026 00:00
Orbit: 616 x 625 km, 98.1° (Epoch: 16 March)

Date Brightness Start Highest point End Pass type
(mag) Time Alt. Az. Time Alt. Az. Time Alt. Az.
19 Mar ? 00:00:46 10° N 00:00:57 11° N 00:00:57 11° N visible
20 Mar ? 00:18:12 10° N 00:18:35 12° N 00:18:35 12° N visible
21 Mar ? 00:35:44 10° N 00:36:12 13° N 00:36:12 13° N visible
22 Mar ? 00:53:21 10° N 00:53:50 12° NNW 00:53:50 12° NNW visible
22 Mar ? 23:33:57 10° NNE 23:34:17 12° NNE 23:34:17 12° NNE visible
23 Mar ? 01:11:08 10° NNW 01:11:27 11° NNW 01:11:27 11° NNW visible
23 Mar ? 23:51:16 10° NNE 23:51:54 14° NNE 23:51:54 14° NNE visible
25 Mar ? 00:08:39 10° N 00:09:30 16° N 00:09:30 16° N visible
